Weather in Jaffna

Sri Lanka     9°39′36″N   80°01′14″E
temp.,
°C
wind,
m/s
gust,
m/s
humid.,
%
clouds,
%
prec.,
mm/h
press.,
hPa
HPBL,
m
11 may, tue
tue1123:30+29s347493 0.0 1008448
02:30+29s4577100 0.1 1006536
05:30+29ssw357517 0.1 1007624
08:30+31sw336711 0.0 10091054
11:30+31sw446675 0.1 10081064
14:30+31sw5465100 0.0 10061051
17:30+31s6670100 0.0 1005632
20:30+30s687289 0.0 1006649
12 may, wed
wed1223:30+30ssw7973100 0.0 1007820
02:30+30ssw7973100 0.0 1005991
05:30+30ssw6876100 0.2 1007796
08:30+30ssw677394 0.4 1008820
11:30+32ssw676787 0.6 10071132
14:30+32ssw776791 0.1 10051133
17:30+30ssw7873100 0.1 1004746
20:30+30ssw8107543 0.0 1005747
13 may, thu
thu1323:30+30ssw9107677 0.0 1005944
02:30+30ssw91074100 0.0 10031052
05:30+30sw7976100 0.1 1005934
08:30+30sw787380 0.3 1007799
11:30+31ssw7868100 1.3 10071142
14:30+32ssw776798 0.0 10041118
17:30+31ssw897497 0.0 1003777
20:30+30s81076100 0.0 1005744
14 may, fri
fri1423:30+30s81076100 0.0 1005889
02:30+30ssw8974100 0.0 10031115
05:30+29ssw7977100 0.3 1004909
08:30+30ssw687894 0.8 1006843
11:30+31ssw677184 2.9 10061063
14:30+31sw676824 1.4 10031037
17:30+31ssw687312 1.6 1003908
20:30+30s68779 0.1 1005832
15 may, sat
sat1523:30+29s6879100 0.3 1005687
02:30+29ssw797762 0.1 1003932
05:30+30ssw7873100 0.4 1004950
08:30+30s6773100 0.3 10061013
11:30+30ssw8974100 2.6 1006993
14:30+31ssw91072100 2.8 10041151
17:30+31ssw5770100 2.4 1004880
20:30